GW6563 Weather Reports


Display with metric or nautical units.
time (UTC)temp
F
wind
direction
speed
MPH
gust
MPH
rain 1hr
in
rain 24hr
in
rain mn
in
humidity
%
barometer
mb
20260509150508 52 78 1.0 8.0 0.02 0.14 0.14 89 1010.6
20260509150027 52 86 1.0 8.0 0.02 0.14 0.14 88 1010.8
20260509145507 52 82 3.0 6.0 0.03 0.14 0.14 88 1010.8
20260509145008 52 94 2.0 6.0 0.02 0.13 0.13 89 1010.8
20260509144524 52 87 1.0 5.0 0.03 0.13 0.13 89 1010.8
20260509144009 51 85 1.0 6.0 0.04 0.13 0.13 88 1010.8
20260509143507 51 103 1.0 6.0 0.04 0.13 0.13 89 1010.9
20260509143028 51 88 2.0 6.0 0.05 0.13 0.13 89 1010.9
20260509142507 51 108 2.0 6.0 0.05 0.13 0.13 89 1010.8
20260509142009 51 78 2.0 5.0 0.05 0.13 0.13 90 1010.9
20260509141531 51 82 1.0 5.0 0.06 0.13 0.13 90 1010.9
20260509141008 51 90 2.0 6.0 0.05 0.12 0.12 90 1010.9
20260509140503 51 91 2.0 6.0 0.05 0.12 0.12 90 1011.0
20260509140022 51 84 4.0 6.0 0.05 0.12 0.12 89 1011.0
20260509135507 51 95 3.0 5.0 0.04 0.11 0.11 89 1010.9
20260509135009 51 77 1.0 6.0 0.05 0.11 0.11 90 1010.9
20260509134525 51 27 3.0 9.0 0.04 0.10 0.10 89 1011.0
20260509134007 51 90 4.0 8.0 0.04 0.09 0.09 89 1011.0
20260509133508 51 65 0.0 9.0 0.04 0.09 0.09 89 1011.0
20260509133026 51 86 4.0 9.0 0.03 0.08 0.08 89 1011.0
20260509132512 51 79 1.0 6.0 0.04 0.08 0.08 89 1011.0
20260509132008 51 99 3.0 5.0 0.04 0.08 0.08 90 1011.0
20260509131526 50 86 2.0 5.0 0.03 0.07 0.07 90 1011.0
20260509131007 50 30 1.0 4.0 0.03 0.07 0.07 90 1011.1
20260509130507 50 101 1.0 3.0 0.03 0.07 0.07 90 1011.1
20260509130021 50 65 1.0 3.0 0.04 0.07 0.07 90 1011.1
20260509125507 50 65 0.0 5.0 0.04 0.07 0.07 90 1011.2
20260509125012 50 78 1.0 5.0 0.03 0.06 0.06 89 1011.2
20260509124534 50 72 0.0 5.0 0.03 0.06 0.06 89 1011.2
20260509124012 50 103 1.0 5.0 0.02 0.05 0.05 89 1011.2
20260509123508 50 68 1.0 6.0 0.02 0.05 0.05 89 1011.2
20260509123040 50 95 2.0 6.0 0.03 0.05 0.05 89 1011.3
20260509122508 50 87 3.0 5.0 0.02 0.04 0.04 88 1011.3
20260509122009 50 84 3.0 5.0 0.02 0.04 0.04 88 1011.3
20260509121515 50 101 3.0 7.0 0.02 0.04 0.04 88 1011.2
20260509121006 50 91 1.0 7.0 0.02 0.04 0.04 88 1011.3
20260509120506 49 77 2.0 4.0 0.02 0.04 0.04 88 1011.2
20260509120018 49 82 2.0 4.0 0.01 0.03 0.03 88 1011.3
20260509115508 49 44 1.0 4.0 0.01 0.03 0.03 88 1011.2
20260509115011 49 45 1.0 5.0 0.01 0.03 0.03 88 1011.3
20260509114526 49 84 2.0 5.0 0.01 0.03 0.03 87 1011.3
20260509114002 49 73 3.0 4.0 0.01 0.03 0.03 87 1011.3
20260509113503 49 87 1.0 3.0 0.01 0.03 0.03 86 1011.2
20260509113003 49 91 0.0 7.0 0.00 0.02 0.02 86 1011.3
20260509112504 49 136 3.0 7.0 0.00 0.02 0.02 85 1011.2
20260509112003 49 94 0.0 7.0 0.00 0.02 0.02 85 1011.2
20260509111511 49 64 3.0 6.0 0.00 0.02 0.02 85 1011.3
20260509111007 49 73 2.0 7.0 0.00 0.02 0.02 85 1011.3
20260509110505 49 57 4.0 7.0 0.00 0.02 0.02 84 1011.2
20260509110018 49 74 4.0 6.0 0.00 0.02 0.02 84 1011.2
20260509105507 49 84 2.0 5.0 0.01 0.02 0.02 84 1011.2
20260509105007 49 84 2.0 5.0 0.01 0.02 0.02 84 1011.1
20260509104527 49 71 3.0 5.0 0.01 0.02 0.02 84 1011.1
20260509104008 49 34 2.0 6.0 0.01 0.02 0.02 85 1011.1
20260509103508 49 58 2.0 6.0 0.01 0.02 0.02 85 1011.2
20260509103004 49 67 1.0 4.0 0.02 0.02 0.02 85 1011.3
20260509102505 49 82 1.0 4.0 0.02 0.02 0.02 84 1011.3
20260509102004 49 77 2.0 3.0 0.02 0.02 0.02 84 1011.3
20260509101508 49 92 0.0 3.0 0.02 0.02 0.02 84 1011.3
20260509101003 50 30 1.0 5.0 0.02 0.02 0.02 83 1011.2
20260509100504 50 91 3.0 5.0 0.02 0.02 0.02 82 1011.4
20260509100018 50 178 2.0 5.0 0.02 0.02 0.02 82 1011.4
20260509095506 50 146 0.0 7.0 0.01 0.01 0.01 82 1011.4
20260509095004 50 112 2.0 9.0 0.01 0.01 0.01 81 1011.5
20260509094518 50 137 4.0 9.0 0.01 0.01 0.01 81 1011.6
20260509094007 50 199 3.0 13.0 0.01 0.01 0.01 81 1011.5
20260509093510 50 231 5.0 13.0 0.01 0.01 0.01 80 1011.5
20260509093023 49 143 4.0 7.0 0.00 0.00 0.00 82 1011.5
20260509092508 48 131 0.0 6.0 0.00 0.00 0.00 82 1011.5
20260509092004 48 46 0.0 6.0 0.00 0.00 0.00 85 1011.4
20260509091507 47 4 0.0 2.0 0.00 0.00 0.00 87 1011.4
20260509091003 46 3 1.0 2.0 0.00 0.00 0.00 89 1011.3
20260509090503 46 11 1.0 2.0 0.00 0.00 0.00 89 1011.2
20260509090010 46 164 0.0 2.0 0.00 0.00 0.00 89 1011.2
20260509085504 46 164 0.0 4.0 0.00 0.00 0.00 89 1011.2
20260509085004 46 205 3.0 4.0 0.00 0.00 0.00 89 1011.2
20260509084518 46 205 0.0 3.0 0.00 0.00 0.00 89 1011.1
20260509084005 46 205 1.0 3.0 0.00 0.00 0.00 89 1011.0
20260509083503 46 15 2.0 4.0 0.00 0.00 0.00 89 1010.8
20260509083033 46 213 2.0 4.0 0.00 0.00 0.00 89 1010.9
20260509082508 46 51 0.0 2.0 0.00 0.00 0.00 89 1010.7
20260509082007 46 160 0.0 0.0 0.00 0.00 0.00 89 1010.8
20260509081524 46 76 0.0 0.0 0.00 0.00 0.00 89 1010.6
20260509081009 46 76 0.0 2.0 0.00 0.00 0.00 89 1010.7
20260509080504 46 76 0.0 2.0 0.00 0.00 0.00 89 1010.6
20260509080010 46 76 0.0 2.0 0.00 0.00 0.00 89 1010.7
20260509075503 46 76 0.0 2.0 0.00 0.00 0.00 89 1010.7
20260509075003 46 76 0.0 1.0 0.00 0.00 0.00 89 1010.6
20260509074514 46 76 0.0 1.0 0.00 0.00 0.00 89 1010.6
20260509074007 46 76 0.0 2.0 0.00 0.00 0.00 88 1010.6
20260509073504 46 91 0.0 2.0 0.00 0.00 0.00 88 1010.6
20260509073020 46 147 0.0 3.0 0.00 0.00 0.00 88 1010.5
20260509072507 46 236 0.0 3.0 0.00 0.00 0.00 88 1010.5
20260509072010 46 172 1.0 3.0 0.00 0.00 0.00 88 1010.7
20260509071523 45 153 2.0 4.0 0.00 0.00 0.00 88 1010.6
20260509071008 45 217 3.0 4.0 0.00 0.00 0.00 88 1010.5
20260509070509 45 211 1.0 3.0 0.00 0.00 0.00 88 1010.5
20260509070027 46 178 1.0 1.0 0.00 0.00 0.00 88 1010.5
20260509065506 46 223 0.0 0.0 0.00 0.00 0.00 87 1010.5
20260509065007 46 223 0.0 0.0 0.00 0.00 0.00 87 1010.6
20260509064520 46 223 0.0 2.0 0.00 0.00 0.00 87 1010.7
20260509064005 46 223 0.0 2.0 0.00 0.00 0.00 86 1010.8
20260509063504 46 178 0.0 2.0 0.00 0.00 0.00 86 1011.1
20260509063017 46 305 0.0 2.0 0.00 0.00 0.00 86 1011.1
20260509062504 46 199 1.0 2.0 0.00 0.00 0.00 86 1011.3
20260509062005 46 4 0.0 2.0 0.00 0.00 0.00 87 1011.2
20260509061536 46 340 1.0 4.0 0.00 0.00 0.00 87 1011.2
20260509061009 46 360 2.0 4.0 0.00 0.00 0.00 87 1011.3
20260509060507 47 146 2.0 4.0 0.00 0.00 0.00 87 1011.4
20260509060026 46 208 1.0 3.0 0.00 0.00 0.00 87 1011.6
20260509055511 47 214 0.0 3.0 0.00 0.00 0.00 86 1011.7
20260509055010 47 166 0.0 2.0 0.00 0.00 0.00 86 1011.8
20260509054510 47 244 0.0 0.0 0.00 0.00 0.00 86 1011.9
20260509054005 47 9 0.0 0.0 0.00 0.00 0.00 86 1011.8
20260509053505 47 9 0.0 0.0 0.00 0.00 0.00 86 1011.9
20260509053028 47 9 0.0 0.0 0.00 0.00 0.00 86 1011.9
20260509052504 47 9 0.0 0.0 0.00 0.00 0.00 86 1011.9
20260509052004 47 339 0.0 0.0 0.00 0.00 0.00 86 1012.0
20260509051521 47 334 0.0 0.0 0.00 0.00 0.00 86 1012.1
20260509051007 47 15 0.0 0.0 0.00 0.00 0.00 86 1012.2
20260509050507 47 15 0.0 0.0 0.00 0.00 0.00 86 1012.2
20260509050025 47 15 0.0 0.0 0.00 0.00 0.00 86 1012.2
20260509045509 47 15 0.0 0.0 0.00 0.00 0.00 86 1012.2
20260509045007 47 15 0.0 0.0 0.00 0.00 0.00 86 1012.2
20260509044530 47 15 0.0 0.0 0.00 0.00 0.00 87 1012.2
20260509044007 47 15 0.0 0.0 0.00 0.00 0.00 86 1012.2
20260509043509 47 15 0.0 0.0 0.00 0.00 0.00 86 1012.3
20260509043010 47 15 0.0 0.0 0.00 0.00 0.00 86 1012.2
20260509042506 47 41 0.0 0.0 0.00 0.00 0.00 86 1012.3
20260509042004 47 46 0.0 0.0 0.00 0.00 0.00 86 1012.4
20260509041518 47 59 0.0 0.0 0.00 0.00 0.00 85 1012.4
20260509041004 47 80 0.0 0.0 0.00 0.00 0.00 85 1012.5
20260509040503 47 19 0.0 0.0 0.00 0.00 0.00 85 1012.6
20260509040021 47 332 0.0 0.0 0.00 0.00 0.00 85 1012.5
20260509035509 47 332 0.0 0.0 0.00 0.00 0.00 85 1012.6
20260509035009 48 284 0.0 0.0 0.00 0.00 0.00 85 1012.6
20260509034526 48 284 0.0 0.0 0.00 0.00 0.00 85 1012.6
20260509034006 47 284 0.0 0.0 0.00 0.00 0.00 84 1012.7
20260509033510 47 280 0.0 2.0 0.00 0.00 0.00 85 1012.7
20260509033026 47 280 0.0 2.0 0.00 0.00 0.00 85 1012.5
20260509032511 47 357 0.0 0.0 0.00 0.00 0.00 86 1012.5
20260509032006 47 357 0.0 0.0 0.00 0.00 0.00 86 1012.5
20260509031518 47 357 0.0 0.0 0.00 0.00 0.00 85 1012.4
20260509031004 47 357 0.0 0.0 0.00 0.00 0.00 85 1012.4
20260509030511 47 357 0.0 0.0 0.00 0.00 0.00 86 1012.4
20260509030023 47 196 0.0 0.0 0.00 0.00 0.00 85 1012.4
20260509025503 47 195 0.0 0.0 0.00 0.00 0.00 85 1012.4
20260509025009 46 195 0.0 0.0 0.00 0.00 0.00 85 1012.5
20260509024526 46 195 0.0 0.0 0.00 0.00 0.00 85 1012.5
20260509024009 46 195 0.0 0.0 0.00 0.00 0.00 85 1012.6
20260509023507 46 195 0.0 0.0 0.00 0.00 0.00 85 1012.5
20260509023027 46 195 0.0 0.0 0.00 0.00 0.00 85 1012.5
20260509022515 46 194 0.0 2.0 0.00 0.00 0.00 85 1012.5
20260509022008 46 191 0.0 2.0 0.00 0.00 0.00 84 1012.5
20260509021530 46 192 0.0 3.0 0.00 0.00 0.00 84 1012.5
20260509021003 47 207 1.0 3.0 0.00 0.00 0.00 84 1012.5
20260509020507 47 205 0.0 2.0 0.00 0.00 0.00 83 1012.5
20260509020021 47 243 1.0 2.0 0.00 0.00 0.00 83 1012.3
20260509015504 48 184 0.0 0.0 0.00 0.00 0.00 81 1012.4
20260509015006 48 184 0.0 0.0 0.00 0.00 0.00 81 1012.3
20260509014521 49 184 0.0 0.0 0.00 0.00 0.00 81 1012.2
20260509014012 49 184 0.0 0.0 0.00 0.00 0.00 81 1012.3
20260509013511 49 184 0.0 0.0 0.00 0.00 0.00 81 1012.4
20260509013024 49 184 0.0 0.0 0.00 0.00 0.00 81 1012.4
20260509012508 49 184 0.0 0.0 0.00 0.00 0.00 81 1012.3
20260509012007 49 184 0.0 0.0 0.00 0.00 0.00 81 1012.4
20260509011528 49 184 0.0 0.0 0.00 0.00 0.00 80 1012.5
20260509011007 49 184 0.0 0.0 0.00 0.00 0.00 80 1012.4
20260509010508 49 184 0.0 0.0 0.00 0.00 0.00 80 1012.3
20260509010028 49 185 0.0 0.0 0.00 0.00 0.00 79 1012.4
20260509005508 49 189 0.0 0.0 0.00 0.00 0.00 79 1012.2
20260509005003 49 189 0.0 0.0 0.00 0.00 0.00 78 1012.3
20260509004532 49 190 0.0 0.0 0.00 0.00 0.00 79 1012.3
20260509004006 50 191 0.0 0.0 0.00 0.00 0.00 79 1012.2
20260509003507 50 189 0.0 0.0 0.00 0.00 0.00 78 1012.2
20260509003006 50 272 0.0 0.0 0.00 0.00 0.00 76 1012.2
20260509002503 50 272 0.0 0.0 0.00 0.00 0.00 76 1012.1
20260509002005 51 272 0.0 0.0 0.00 0.00 0.00 76 1012.1
20260509001508 51 289 0.0 0.0 0.00 0.00 0.00 75 1011.9
20260509001003 52 289 0.0 0.0 0.00 0.00 0.00 74 1012.0
20260509000507 52 289 0.0 0.0 0.00 0.00 0.00 70 1011.9
20260509000014 52 289 0.0 0.0 0.00 0.00 0.00 72 1012.0
20260508235506 53 288 0.0 0.0 0.00 0.00 0.00 72 1012.1
20260508235004 53 288 0.0 0.0 0.00 0.00 0.00 73 1012.1
20260508234519 53 288 0.0 0.0 0.00 0.00 0.00 70 1012.1
20260508234003 53 288 0.0 0.0 0.00 0.00 0.00 71 1012.2
20260508233508 53 288 0.0 0.0 0.00 0.00 0.00 70 1012.1
20260508233003 54 288 0.0 0.0 0.00 0.00 0.00 70 1012.0
20260508232504 54 288 0.0 0.0 0.00 0.00 0.00 67 1011.9
20260508232006 54 297 0.0 1.0 0.00 0.00 0.00 64 1011.8
20260508231510 54 353 0.0 2.0 0.00 0.00 0.00 65 1011.9
20260508231005 55 353 1.0 2.0 0.00 0.00 0.00 62 1011.9
20260508230504 55 229 0.0 0.0 0.00 0.00 0.00 61 1011.9
20260508230010 55 229 0.0 1.0 0.00 0.00 0.00 60 1011.9
20260508225503 55 229 0.0 3.0 0.00 0.00 0.00 59 1012.0
20260508225003 55 235 1.0 3.0 0.00 0.00 0.00 59 1011.9
20260508224526 55 219 0.0 4.0 0.00 0.00 0.00 59 1011.9
20260508224003 55 219 0.0 4.0 0.00 0.00 0.00 59 1011.9
20260508223507 55 143 2.0 5.0 0.00 0.00 0.00 57 1011.9
20260508223036 55 201 3.0 4.0 0.00 0.00 0.00 58 1011.9
20260508222507 55 200 2.0 7.0 0.00 0.00 0.00 58 1011.9
20260508222006 56 154 3.0 7.0 0.00 0.00 0.00 56 1011.8
20260508221507 56 184 1.0 7.0 0.00 0.00 0.00 58 1011.8
20260508221003 55 207 2.0 7.0 0.00 0.00 0.00 59 1011.9
20260508220503 55 124 1.0 3.0 0.00 0.00 0.00 60 1011.9
20260508220009 54 195 0.0 3.0 0.00 0.00 0.00 61 1012.0
20260508215507 54 113 1.0 6.0 0.00 0.00 0.00 60 1012.1
20260508215005 54 149 0.0 6.0 0.00 0.00 0.00 62 1012.2
20260508214516 54 60 2.0 4.0 0.00 0.00 0.00 62 1012.3
20260508214002 54 170 2.0 4.0 0.00 0.00 0.00 62 1012.4
20260508213504 54 147 1.0 7.0 0.00 0.00 0.00 62 1012.5
20260508213019 54 127 3.0 7.0 0.00 0.00 0.00 62 1012.5
20260508212504 54 109 0.0 6.0 0.00 0.00 0.00 64 1012.4
20260508212010 54 142 1.0 3.0 0.00 0.00 0.00 63 1012.4
20260508211524 54 84 0.0 5.0 0.00 0.00 0.00 63 1012.4
20260508211003 54 143 2.0 5.0 0.00 0.00 0.00 64 1012.5
20260508210503 54 164 2.0 7.0 0.00 0.00 0.00 62 1012.6
20260508210008 54 135 2.0 7.0 0.00 0.00 0.00 63 1012.7
20260508205503 54 181 2.0 7.0 0.00 0.00 0.00 62 1012.8
20260508205004 54 162 3.0 10.0 0.00 0.00 0.00 62 1012.8
20260508204514 54 199 5.0 10.0 0.00 0.00 0.00 60 1012.8
20260508204006 54 169 4.0 8.0 0.00 0.00 0.00 60 1012.8
20260508203504 55 179 4.0 8.0 0.00 0.00 0.00 59 1012.9
20260508203025 55 108 4.0 9.0 0.00 0.00 0.00 58 1012.9
20260508202504 55 195 4.0 11.0 0.00 0.00 0.00 58 1012.9
20260508202007 55 195 6.0 12.0 0.00 0.00 0.00 57 1012.9
20260508201524 55 129 5.0 12.0 0.00 0.00 0.00 57 1012.8
20260508201011 55 134 2.0 11.0 0.00 0.00 0.00 58 1012.8
20260508200507 55 153 5.0 13.0 0.00 0.00 0.00 57 1012.7
20260508200026 55 87 6.0 13.0 0.00 0.00 0.00 57 1012.8
20260508195506 56 229 4.0 15.0 0.00 0.00 0.00 57 1012.9
20260508195005 56 165 4.0 15.0 0.00 0.00 0.00 55 1012.8
20260508194512 56 185 7.0 20.0 0.00 0.00 0.00 54 1012.9
20260508194002 56 152 8.0 20.0 0.00 0.00 0.00 54 1012.9
20260508193502 56 165 11.0 17.0 0.00 0.00 0.00 53 1013.0
20260508193017 56 187 5.0 11.0 0.00 0.00 0.00 54 1012.9
20260508192504 56 115 6.0 12.0 0.00 0.00 0.00 54 1013.0
20260508192004 56 226 5.0 13.0 0.00 0.00 0.00 55 1013.0
20260508191534 56 159 8.0 16.0 0.00 0.00 0.00 54 1013.1
20260508191008 56 141 8.0 19.0 0.00 0.00 0.00 53 1013.1
20260508190504 56 212 9.0 19.0 0.00 0.00 0.00 52 1013.0
20260508190031 57 241 6.0 14.0 0.00 0.00 0.00 51 1013.0
20260508185506 57 141 5.0 17.0 0.00 0.00 0.00 51 1012.9
20260508185010 58 153 8.0 17.0 0.00 0.00 0.00 50 1012.9
20260508184510 58 219 4.0 20.0 0.00 0.00 0.00 51 1012.8
20260508184005 58 146 13.0 20.0 0.00 0.00 0.00 49 1012.8
20260508183504 58 107 8.0 19.0 0.00 0.00 0.00 49 1012.7
20260508183015 58 117 8.0 19.0 0.00 0.00 0.00 48 1012.8
20260508182508 59 203 9.0 18.0 0.00 0.00 0.00 46 1012.7
20260508182003 60 179 9.0 17.0 0.00 0.00 0.00 49 1012.7
20260508181517 59 184 8.0 15.0 0.00 0.00 0.00 49 1012.7
20260508181004 58 115 4.0 15.0 0.00 0.00 0.00 50 1012.8
20260508180508 57 137 5.0 15.0 0.00 0.00 0.00 50 1012.8
20260508180026 57 140 6.0 14.0 0.00 0.00 0.00 50 1012.9
20260508175508 57 136 4.0 16.0 0.00 0.00 0.00 51 1013.0
20260508175010 56 214 4.0 16.0 0.00 0.00 0.00 50 1013.1
20260508174526 57 154 8.0 15.0 0.00 0.00 0.00 49 1013.2
20260508174008 57 158 9.0 18.0 0.00 0.00 0.00 47 1013.1
20260508173503 57 159 9.0 18.0 0.00 0.00 0.00 46 1013.0
20260508173010 58 169 10.0 16.0 0.00 0.00 0.00 44 1013.0
20260508172506 59 191 4.0 17.0 0.00 0.00 0.00 45 1013.1
20260508172008 59 221 7.0 17.0 0.00 0.00 0.00 43 1013.1
20260508171516 59 191 5.0 16.0 0.00 0.00 0.00 45 1013.0
20260508171004 58 245 8.0 16.0 0.00 0.00 0.00 46 1013.2
20260508170508 58 190 9.0 16.0 0.00 0.00 0.00 44 1013.2
20260508170024 58 180 7.0 16.0 0.00 0.00 0.00 47 1013.3
20260508165507 58 113 4.0 20.0 0.00 0.00 0.00 46 1013.3
20260508165007 58 146 9.0 22.0 0.00 0.00 0.00 45 1013.3
20260508164525 58 182 7.0 22.0 0.00 0.00 0.00 47 1013.5
20260508164008 58 195 6.0 20.0 0.00 0.00 0.00 48 1013.5
20260508163510 58 89 9.0 20.0 0.00 0.00 0.00 49 1013.4
20260508163029 57 158 7.0 22.0 0.00 0.00 0.00 50 1013.7
20260508162504 57 206 12.0 22.0 0.00 0.00 0.00 48 1013.7
20260508162004 58 176 8.0 19.0 0.00 0.00 0.00 47 1013.7
20260508161516 58 207 10.0 19.0 0.00 0.00 0.00 51 1013.8
20260508161003 57 168 12.0 18.0 0.00 0.00 0.00 47 1013.9
20260508160503 57 148 9.0 21.0 0.00 0.00 0.00 48 1013.8
20260508160018 57 219 11.0 21.0 0.00 0.00 0.00 48 1013.9
20260508155506 57 212 9.0 20.0 0.00 0.00 0.00 49 1013.8
20260508155007 56 124 10.0 20.0 0.00 0.00 0.00 49 1013.8
20260508154525 57 221 10.0 17.0 0.00 0.00 0.00 46 1013.9
20260508154009 57 72 8.0 19.0 0.00 0.00 0.00 49 1013.9
20260508153506 56 190 8.0 19.0 0.00 0.00 0.00 49 1014.0
20260508153031 56 198 7.0 19.0 0.00 0.00 0.00 49 1014.0
20260508152510 56 114 6.0 17.0 0.00 0.00 0.00 49 1014.0
20260508152003 55 130 7.0 17.0 0.00 0.00 0.00 49 1014.0
20260508151511 55 165 9.0 17.0 0.00 0.00 0.00 47 1014.2
20260508151004 55 101 9.0 23.0 0.00 0.00 0.00 48 1014.1